EWG3CD EDDB-LOWS

Flight info

Callsign EWG3CD
Flight time N/A
Altitude 28000
Route LUROS4N/24L LUROS Y211 BEBKU Z36 MAREM DCT VESUB T106 NETES/N0430F290 T700 BADIT BADIT2R
Aircraft A319/M-SDE3FGHIRWY/LB1

Departure

Time N/A
Airport Berlin Brandenburg Airport (EDDB)

Arrival

Time 2026-05-03 20:54
Airport Salzburg Airport (LOWS)
Time Latitude Longitude Altitude Speed Heading
2026-05-03 20:15 51.44265 13.22786 26953 ft 403 kts 186°
2026-05-03 20:15 51.41458 13.22455 27354 ft 405 kts 186°
2026-05-03 20:15 51.38636 13.22124 27742 ft 408 kts 186°
2026-05-03 20:15 51.35795 13.21794 28130 ft 411 kts 186°
2026-05-03 20:16 51.32941 13.21465 28523 ft 413 kts 186°
2026-05-03 20:16 51.30054 13.21133 28914 ft 416 kts 186°
2026-05-03 20:16 51.27163 13.20797 29242 ft 418 kts 186°
2026-05-03 20:16 51.24259 13.20455 29530 ft 419 kts 186°
2026-05-03 20:17 51.21343 13.20111 29819 ft 421 kts 186°
2026-05-03 20:17 51.18424 13.19766 29941 ft 418 kts 186°
2026-05-03 20:17 51.15579 13.19434 29958 ft 403 kts 187°
2026-05-03 20:18 51.10077 13.18795 29960 ft 393 kts 187°
2026-05-03 20:18 51.04637 13.18163 29960 ft 392 kts 186°
2026-05-03 20:19 50.99193 13.17530 29970 ft 392 kts 186°
2026-05-03 20:19 50.93750 13.16905 29969 ft 392 kts 186°
2026-05-03 20:20 50.88313 13.16281 29967 ft 392 kts 186°
2026-05-03 20:20 50.82872 13.15656 29962 ft 391 kts 186°
2026-05-03 20:21 50.77441 13.15037 29959 ft 391 kts 186°
2026-05-03 20:21 50.72008 13.14412 29958 ft 391 kts 186°
2026-05-03 20:22 50.66573 13.13786 29961 ft 392 kts 186°
2026-05-03 20:22 50.61142 13.13154 29961 ft 392 kts 186°
2026-05-03 20:23 50.55741 13.12537 29935 ft 392 kts 186°
2026-05-03 20:23 50.50290 13.11905 29945 ft 393 kts 186°
2026-05-03 20:24 50.44823 13.11275 29956 ft 394 kts 186°
2026-05-03 20:24 50.39347 13.10660 29963 ft 395 kts 186°
2026-05-03 20:25 50.33864 13.10036 29967 ft 395 kts 186°
2026-05-03 20:25 50.28378 13.09409 29977 ft 395 kts 186°
2026-05-03 20:26 50.22890 13.08783 29982 ft 395 kts 186°
2026-05-03 20:26 50.17408 13.08161 29982 ft 395 kts 186°
2026-05-03 20:27 50.11922 13.07537 29977 ft 395 kts 186°
2026-05-03 20:27 50.06438 13.06916 29972 ft 395 kts 186°
2026-05-03 20:28 50.00987 13.06303 29965 ft 395 kts 186°
2026-05-03 20:28 49.95501 13.05687 29957 ft 395 kts 186°
2026-05-03 20:29 49.90012 13.05074 29938 ft 395 kts 186°
2026-05-03 20:29 49.84525 13.04457 29945 ft 395 kts 186°
2026-05-03 20:30 49.79038 13.03838 29942 ft 395 kts 186°
2026-05-03 20:30 49.73554 13.03236 29945 ft 395 kts 186°
2026-05-03 20:31 49.68074 13.02631 29939 ft 395 kts 186°
2026-05-03 20:31 49.62599 13.02022 29945 ft 394 kts 186°
2026-05-03 20:32 49.57134 13.01304 29946 ft 394 kts 188°
2026-05-03 20:32 49.51720 13.00056 29942 ft 393 kts 191°
2026-05-03 20:33 49.46330 12.98653 29733 ft 391 kts 191°
2026-05-03 20:33 49.43649 12.97984 29222 ft 389 kts 190°
2026-05-03 20:33 49.40981 12.97346 28763 ft 387 kts 190°
2026-05-03 20:33 49.38326 12.96740 28333 ft 384 kts 189°
2026-05-03 20:34 49.35686 12.96154 27907 ft 382 kts 189°
2026-05-03 20:34 49.33069 12.95580 27493 ft 379 kts 189°
2026-05-03 20:34 49.30468 12.95006 27103 ft 376 kts 189°
2026-05-03 20:34 49.27886 12.94432 26726 ft 374 kts 190°
2026-05-03 20:35 49.25322 12.93857 26357 ft 371 kts 190°
2026-05-03 20:35 49.22806 12.93290 25944 ft 369 kts 190°
2026-05-03 20:35 49.20272 12.92721 25549 ft 367 kts 190°
2026-05-03 20:35 49.17752 12.92160 25163 ft 364 kts 190°
2026-05-03 20:36 49.15253 12.91605 24769 ft 362 kts 190°
2026-05-03 20:36 49.12770 12.91048 24376 ft 359 kts 190°
2026-05-03 20:36 49.10306 12.90494 23969 ft 357 kts 190°
2026-05-03 20:36 49.07857 12.89947 23562 ft 354 kts 190°
2026-05-03 20:37 49.05423 12.89405 23074 ft 352 kts 190°
2026-05-03 20:37 49.03006 12.88939 22595 ft 350 kts 186°
2026-05-03 20:37 49.00587 12.88716 22156 ft 346 kts 185°
2026-05-03 20:37 48.98192 12.88562 21721 ft 343 kts 184°
2026-05-03 20:38 48.95818 12.88441 21279 ft 340 kts 184°
2026-05-03 20:38 48.93464 12.88330 20857 ft 337 kts 184°
2026-05-03 20:38 48.91129 12.88217 20452 ft 334 kts 184°
2026-05-03 20:38 48.88817 12.88097 20047 ft 331 kts 184°
2026-05-03 20:39 48.86522 12.87966 19637 ft 329 kts 184°
2026-05-03 20:39 48.84247 12.87818 19234 ft 326 kts 185°
2026-05-03 20:39 48.81990 12.87662 18835 ft 323 kts 185°
2026-05-03 20:39 48.79756 12.87503 18428 ft 320 kts 184°
2026-05-03 20:40 48.77533 12.87346 17995 ft 319 kts 184°
2026-05-03 20:40 48.75325 12.87193 17533 ft 317 kts 184°
2026-05-03 20:40 48.73128 12.87041 17075 ft 316 kts 184°
2026-05-03 20:40 48.70939 12.86892 16625 ft 314 kts 184°
2026-05-03 20:41 48.68763 12.86744 16178 ft 313 kts 184°
2026-05-03 20:41 48.66595 12.86598 15732 ft 311 kts 184°
2026-05-03 20:41 48.64435 12.86451 15307 ft 310 kts 184°
2026-05-03 20:41 48.62284 12.86305 14880 ft 309 kts 184°
2026-05-03 20:42 48.60140 12.86158 14463 ft 308 kts 184°
2026-05-03 20:42 48.58007 12.86012 14059 ft 307 kts 184°
2026-05-03 20:42 48.55882 12.85870 13698 ft 304 kts 184°
2026-05-03 20:42 48.53778 12.85730 13307 ft 302 kts 184°
2026-05-03 20:43 48.51682 12.85591 12886 ft 301 kts 184°
2026-05-03 20:43 48.49597 12.85451 12459 ft 300 kts 184°
2026-05-03 20:43 48.47519 12.85310 12043 ft 298 kts 183°
2026-05-03 20:43 48.45479 12.85173 11650 ft 297 kts 183°
2026-05-03 20:44 48.43418 12.85039 11263 ft 296 kts 183°
2026-05-03 20:44 48.41362 12.84904 10869 ft 295 kts 183°
2026-05-03 20:44 48.39315 12.84766 10483 ft 294 kts 183°
2026-05-03 20:44 48.37271 12.84634 10108 ft 293 kts 182°
2026-05-03 20:45 48.35251 12.84517 9891 ft 286 kts 182°
2026-05-03 20:45 48.33273 12.84404 9558 ft 284 kts 182°
2026-05-03 20:45 48.31305 12.84291 9183 ft 283 kts 182°
2026-05-03 20:45 48.29342 12.84179 8859 ft 281 kts 182°
2026-05-03 20:46 48.27389 12.84069 8474 ft 281 kts 182°
2026-05-03 20:46 48.25436 12.83959 8104 ft 281 kts 182°
2026-05-03 20:46 48.23485 12.83847 7770 ft 280 kts 182°
2026-05-03 20:46 48.21540 12.83732 7412 ft 279 kts 182°
2026-05-03 20:47 48.19603 12.83619 7059 ft 278 kts 182°
2026-05-03 20:47 48.17668 12.83507 6717 ft 278 kts 182°
2026-05-03 20:47 48.15746 12.83689 6359 ft 277 kts 169°
2026-05-03 20:47 48.13876 12.84362 6009 ft 277 kts 166°
2026-05-03 20:48 48.12006 12.85066 5651 ft 277 kts 166°
2026-05-03 20:48 48.10143 12.85781 5451 ft 278 kts 166°
2026-05-03 20:48 48.08264 12.86513 5281 ft 279 kts 166°
2026-05-03 20:48 48.06395 12.87251 5105 ft 276 kts 166°
2026-05-03 20:49 48.04549 12.87978 4934 ft 274 kts 166°
2026-05-03 20:49 48.03325 12.88409 4825 ft 273 kts 169°
2026-05-03 20:49 48.00872 12.89126 4623 ft 263 kts 169°
2026-05-03 20:49 47.99694 12.89460 4533 ft 258 kts 169°
2026-05-03 20:50 47.97960 12.89951 4417 ft 249 kts 169°
2026-05-03 20:50 47.96295 12.90421 4291 ft 238 kts 170°
2026-05-03 20:50 47.94223 12.91078 4121 ft 221 kts 163°
2026-05-03 20:50 47.93271 12.91578 4036 ft 210 kts 159°
2026-05-03 20:51 47.91526 12.92661 3746 ft 202 kts 158°
2026-05-03 20:51 47.90652 12.93215 3569 ft 201 kts 158°
2026-05-03 20:51 47.89378 12.94020 3380 ft 194 kts 158°
2026-05-03 20:51 47.88187 12.94815 3075 ft 181 kts 157°
2026-05-03 20:52 47.87079 12.95510 2843 ft 161 kts 160°
2026-05-03 20:52 47.86110 12.96149 2591 ft 147 kts 158°
2026-05-03 20:52 47.85186 12.96728 2402 ft 141 kts 159°
2026-05-03 20:52 47.84298 12.97289 2262 ft 137 kts 159°
2026-05-03 20:53 47.83420 12.97864 2046 ft 142 kts 158°
2026-05-03 20:53 47.82517 12.98392 1851 ft 133 kts 161°
2026-05-03 20:53 47.81694 12.98910 1704 ft 130 kts 156°
2026-05-03 20:53 47.80851 12.99440 1569 ft 133 kts 159°
2026-05-03 20:54 47.80006 12.99971 1431 ft 126 kts 159°
2026-05-03 20:54 47.79149 13.00506 1423 ft 10 kts 167°
2026-05-03 20:54 47.79115 13.00417 1420 ft 12 kts 270°
2026-05-03 20:55 47.79130 13.00282 1420 ft 14 kts 295°
2026-05-03 20:55 47.79220 13.00197 1420 ft 17 kts 336°
2026-05-03 20:55 47.79324 13.00132 1420 ft 10 kts 337°
2026-05-03 20:55 47.79349 13.00040 1420 ft 12 kts 250°
2026-05-03 20:56 47.79317 12.99956 1420 ft 7 kts 216°
2026-05-03 20:56 47.79294 12.99993 1420 ft 7 kts 96°
2026-05-03 20:56 47.79286 13.00055 1420 ft 4 kts 101°